Location: Newark
(51.0500°N, 12.4500°E)
Time: 15:00:31
(UTC+00:00)

Tiros 1 - Pass Details

Date: 27 February 2020
Orbit: 630 x 664 km, 48.4° (Epoch: 08 April)

Event Time Altitude Azimuth Distance (km) Brightness Sun altitude
Rises 03:08:37 0° 272° (W) 2,928 - -27.4°
Reaches altitude 10° 03:10:58 10° 269° (W) 2,016 - -27.0°
Maximum altitude 03:15:31 57° 191° (S) 742 - -26.4°
Exits shadow 03:16:39 43° 140° (SE) 880 7.9 -26.2°
Drops below altitude 10° 03:20:02 10° 113° (ESE) 2,006 10.3 -25.7°
Sets 03:22:22 0° 109° (ESE) 2,913 11.3 -25.4°
